Date String (YYYY-MM-DD hh:mm:ss) UTC,Instrument flags,absolute air pressure of the measurement (hPa),sample flow rate (lpm),inlet stack bypass flow (lpm),air temperature of the measurement (°C),ambient temperature measured by the external sensor (°C),aerosol sample conditioner tube jacket temperature (°C),OPC LED temperature (°C),internal box temperature (°C),relative humidity of the measurement (%),span deviation,mass concentration of particles derived from Lorenz-Mie calculation of OPC scattering (μg/m³),mass concentration of particles derived from Lorenz-Mie calculation of OPC scattering (μg/m³),mass concentration of particles derived from Lorenz-Mie calculation of OPC scattering (μg/m³)
DateTimeUTC,F1_M11,P_M11,Q1_M11,Q2_M11,T1_M11,T2_M11,T3_M11,T4_M11,T5_M11,U1_M11,ZSPAN_M11,X2_M11,X0_M11,X1_M11
2023-10-09 10:00:00,SystemResetWarning,0830.2,5.00,000.00,028.8,027.3,000.0,037.3,030.4,12.1,0000.0,0003.16,0007.80,0002.29
2023-10-09 10:01:00,SystemResetWarning,0830.2,5.00,000.00,028.8,027.3,000.0,037.3,030.4,12.1,0000.0,0003.19,0008.04,0002.31
2023-10-09 10:02:00,SystemResetWarning,0830.2,5.01,000.00,028.8,027.3,000.0,037.3,030.4,12.1,0000.0,0003.16,0008.22,0002.31
2023-10-09 10:03:00,SystemResetWarning,0830.2,5.00,000.00,028.8,027.3,000.0,037.3,030.4,12.2,0000.0,0003.13,0008.95,0002.30
2023-10-09 10:04:00,SystemResetWarning,0830.2,4.99,000.00,028.8,027.3,000.0,037.3,030.4,12.1,0000.0,0003.13,0008.94,0002.28
2023-10-09 10:05:00,SystemResetWarning,0830.2,4.99,000.00,028.8,027.3,000.0,037.3,030.4,12.1,0000.0,0003.11,0009.12,0002.26
2023-10-09 10:06:00,SystemResetWarning,0830.2,5.00,000.00,028.8,027.3,000.0,037.3,030.4,12.2,0000.0,0003.07,0009.18,0002.25
2023-10-09 10:07:00,SystemResetWarning,0830.2,4.99,000.00,028.8,027.3,000.0,037.3,030.4,12.2,0000.0,0003.08,0009.18,0002.25
2023-10-09 10:08:00,SystemResetWarning,0830.2,5.00,000.00,028.8,027.3,000.0,037.3,030.4,12.2,0000.0,0003.10,0009.04,0002.26
2023-10-09 10:09:00,SystemResetWarning,0830.2,5.00,000.00,028.8,027.3,000.0,037.3,030.4,12.2,0000.0,0003.13,0008.79,0002.27
2023-10-09 10:10:00,SystemResetWarning,0830.2,5.00,000.00,028.8,027.3,000.0,037.3,030.4,12.2,0000.0,0003.14,0009.00,0002.27
2023-10-09 10:11:00,SystemResetWarning,0830.2,5.01,000.00,028.8,027.3,000.0,037.3,030.4,12.2,0000.0,0003.15,0008.75,0002.28
2023-10-09 10:12:00,SystemResetWarning,0830.2,5.00,000.00,028.8,027.3,000.0,037.3,030.4,12.2,0000.0,0003.18,0008.64,0002.28
2023-10-09 10:13:00,SystemResetWarning,0830.2,5.00,000.00,028.8,027.3,000.0,037.3,030.4,12.2,0000.0,0003.17,0008.72,0002.29
2023-10-09 10:14:00,SystemResetWarning,0830.2,5.00,000.00,028.8,027.3,000.0,037.3,030.4,12.1,0000.0,0003.13,0008.49,0002.28
2023-10-09 10:15:00,SystemResetWarning,0830.2,5.00,000.00,028.8,027.3,000.0,037.3,030.4,12.1,0000.0,0003.08,0008.20,0002.27
2023-10-09 10:16:00,SystemResetWarning,0830.2,5.00,000.00,028.8,027.3,000.0,037.3,030.4,12.2,0000.0,0003.08,0008.08,0002.28
2023-10-09 10:17:00,SystemResetWarning,0830.2,5.00,000.00,028.8,027.3,000.0,037.3,030.4,12.2,0000.0,0003.05,0007.97,0002.29
2023-10-09 10:18:00,SystemResetWarning,0830.2,5.00,000.00,028.8,027.3,000.0,037.3,030.4,12.2,0000.0,0003.09,0008.04,0002.30
2023-10-09 10:19:00,SystemResetWarning,0830.3,5.00,000.00,028.8,027.3,000.0,037.3,030.4,12.2,0000.0,0003.11,0008.13,0002.30
2023-10-09 10:20:00,SystemResetWarning,0830.3,4.99,000.00,028.8,027.3,000.0,037.3,030.4,12.2,0000.0,0003.11,0008.00,0002.29
2023-10-09 10:21:00,SystemResetWarning,0830.3,4.99,000.00,028.8,027.3,000.0,037.3,030.4,12.2,0000.0,0003.13,0007.86,0002.30
2023-10-09 10:22:00,SystemResetWarning,0830.2,5.01,000.00,028.8,027.3,000.0,037.3,030.4,12.2,0000.0,0003.12,0007.59,0002.30
2023-10-09 10:23:00,SystemResetWarning,0830.2,5.01,000.00,028.8,027.3,000.0,037.3,030.4,12.2,0000.0,0003.12,0007.61,0002.30
2023-10-09 10:24:00,SystemResetWarning,0830.2,4.99,000.00,028.8,027.3,000.0,037.3,030.4,12.2,0000.0,0003.13,0007.15,0002.29
2023-10-09 10:25:00,SystemResetWarning,0830.3,4.99,000.00,028.8,027.3,000.0,037.3,030.4,12.2,0000.0,0003.15,0005.90,0002.31
2023-10-09 10:26:00,SystemResetWarning,0830.3,4.99,000.00,028.8,027.3,000.0,037.3,030.4,12.2,0000.0,0003.15,0006.18,0002.32
2023-10-09 10:27:00,SystemResetWarning,0830.2,5.00,000.00,028.8,027.3,000.0,037.3,030.4,12.2,0000.0,0003.14,0005.94,0002.31
2023-10-09 10:28:00,SystemResetWarning,0830.3,5.00,000.00,028.8,027.3,000.0,037.3,030.4,12.2,0000.0,0003.14,0005.72,0002.30
2023-10-09 10:29:00,SystemResetWarning,0830.2,5.01,000.00,028.8,027.3,000.0,037.3,030.4,12.2,0000.0,0003.10,0005.47,0002.28
2023-10-09 10:30:00,SystemResetWarning,0830.2,5.00,000.00,028.8,027.3,000.0,037.3,030.4,12.2,0000.0,0003.07,0005.32,0002.28
2023-10-09 10:31:00,SystemResetWarning,0830.2,5.00,000.00,028.8,027.3,000.0,037.3,030.4,12.2,0000.0,0003.09,0005.76,0002.27
2023-10-09 10:32:00,SystemResetWarning,0830.3,5.00,000.00,028.8,027.3,000.0,037.3,030.4,12.2,0000.0,0003.06,0006.05,0002.26
2023-10-09 10:33:00,SystemResetWarning,0830.2,5.00,000.00,028.8,027.3,000.0,037.3,030.4,12.2,0000.0,0003.03,0006.43,0002.25
2023-10-09 10:34:00,SystemResetWarning,0830.2,5.00,000.00,028.8,027.3,000.0,037.3,030.4,12.2,0000.0,0003.02,0006.42,0002.25
2023-10-09 10:35:00,SystemResetWarning,0830.3,5.00,000.00,028.8,027.3,000.0,037.3,030.4,12.2,0000.0,0002.97,0007.15,0002.24
2023-10-09 10:36:00,SystemResetWarning,0830.3,5.00,000.00,028.8,027.3,000.0,037.3,030.4,12.2,0000.0,0002.94,0007.45,0002.23
2023-10-09 10:37:00,SystemResetWarning,0830.3,5.00,000.00,028.8,027.3,000.0,037.3,030.4,12.2,0000.0,0002.96,0007.39,0002.22
2023-10-09 10:38:00,SystemResetWarning,0830.2,5.00,000.00,028.8,027.2,000.0,037.3,030.4,12.2,0000.0,0002.96,0007.29,0002.22
2023-10-09 10:39:00,SystemResetWarning,0830.2,5.00,000.00,028.8,027.2,000.0,037.3,030.4,12.2,0000.0,0002.99,0007.40,0002.23
2023-10-09 10:40:00,SystemResetWarning,0830.2,5.00,000.00,028.8,027.2,000.0,037.3,030.4,12.2,0000.0,0002.99,0007.53,0002.23
2023-10-09 10:41:00,SystemResetWarning,0830.3,5.00,000.00,028.8,027.2,000.0,037.3,030.4,12.2,0000.0,0003.02,0008.03,0002.24
2023-10-09 10:42:00,SystemResetWarning,0830.3,5.00,000.00,028.8,027.2,000.0,037.3,030.4,12.2,0000.0,0003.00,0008.40,0002.25
2023-10-09 10:43:00,SystemResetWarning,0830.3,5.00,000.00,028.8,027.2,000.0,037.3,030.4,12.2,0000.0,0002.97,0008.09,0002.26
2023-10-09 10:44:00,SystemResetWarning,0830.3,5.00,000.00,028.8,027.2,000.0,037.3,030.4,12.2,0000.0,0002.99,0007.94,0002.27
2023-10-09 10:45:00,SystemResetWarning,0830.3,5.01,000.00,028.8,027.2,000.0,037.3,030.4,12.2,0000.0,0002.97,0008.04,0002.26
2023-10-09 10:46:00,SystemResetWarning,0830.2,5.01,000.00,028.8,027.2,000.0,037.3,030.4,12.2,0000.0,0002.99,0008.65,0002.25
2023-10-09 10:47:00,SystemResetWarning,0830.2,5.01,000.00,028.8,027.2,000.0,037.3,030.4,12.2,0000.0,0003.01,0008.25,0002.25
2023-10-09 10:48:00,SystemResetWarning,0830.2,5.00,000.00,028.8,027.2,000.0,037.3,030.4,12.2,0000.0,0003.00,0008.14,0002.25
2023-10-09 10:49:00,SystemResetWarning,0830.2,5.00,000.00,028.8,027.2,000.0,037.3,030.4,12.2,0000.0,0003.00,0008.18,0002.24
2023-10-09 10:50:00,SystemResetWarning,0830.2,5.00,000.00,028.8,027.2,000.0,037.3,030.4,12.2,0000.0,0002.97,0008.23,0002.23
2023-10-09 10:51:00,SystemResetWarning,0830.2,4.99,000.00,028.8,027.2,000.0,037.2,030.3,12.2,0000.0,0002.98,0008.29,0002.23
2023-10-09 10:52:00,SystemResetWarning,0830.2,4.99,000.00,028.8,027.2,000.0,037.2,030.3,12.2,0000.0,0003.00,0007.79,0002.22
2023-10-09 10:53:00,SystemResetWarning,0830.2,5.00,000.00,028.8,027.2,000.0,037.2,030.3,12.2,0000.0,0003.03,0007.23,0002.21
2023-10-09 10:54:00,SystemResetWarning,0830.2,5.00,000.00,028.8,027.2,000.0,037.2,030.3,12.2,0000.0,0003.01,0007.39,0002.21
2023-10-09 10:55:00,SystemResetWarning,0830.2,5.00,000.00,028.8,027.2,000.0,037.2,030.3,12.2,0000.0,0003.01,0007.76,0002.21
2023-10-09 10:56:00,SystemResetWarning,0830.2,5.00,000.00,028.7,027.2,000.0,037.2,030.4,12.2,0000.0,0003.03,0007.83,0002.22
2023-10-09 10:57:00,SystemResetWarning,0830.2,5.00,000.00,028.7,027.2,000.0,037.2,030.3,12.2,0000.0,0002.99,0006.76,0002.23
2023-10-09 10:58:00,SystemResetWarning,0830.1,5.00,000.00,028.7,027.2,000.0,037.2,030.3,12.2,0000.0,0003.00,0007.00,0002.23
2023-10-09 10:59:00,SystemResetWarning,0830.1,5.00,000.00,028.8,027.2,000.0,037.2,030.3,12.2,0000.0,0003.06,0007.65,0002.23
